• In Deutschland
  • Länderverzeichnis
  • Für 7 Tage
  • Wassertemperatur
  • Satellitenkarten
  • Wetterkarte
  • Widgets
  • user-avatar
    Anmelden

    Stündliche Wetter Algier

    Heute, 24 April, Dienstag

    Zeit Temperatur Niederschläge Wind Luftdruck Luftfeuchtigkeit
    00:00 +24°C° 0 mm 7 m/S 747 mmHg 35%
    01:00 +23°C° 0 mm 6 m/S 747 mmHg 36%
    02:00 +23°C° 0 mm 6 m/S 747 mmHg 36%
    03:00 +23°C° 0 mm 6 m/S 747 mmHg 36%
    04:00 +22°C° 0,1 mm 6 m/S 747 mmHg 42%
    05:00 +22°C° 0,1 mm 5 m/S 747 mmHg 47%
    06:00 +22°C° 0 mm 4 m/S 747 mmHg 51%
    07:00 +25°C° 0 mm 5 m/S 748 mmHg 45%
    08:00 +28°C° 0 mm 5 m/S 748 mmHg 40%
    09:00 +30°C° 0 mm 5 m/S 748 mmHg 34%
    10:00 +32°C° 0 mm 6 m/S 748 mmHg 32%
    11:00 +33°C° 0 mm 6 m/S 747 mmHg 30%
    12:00 +34°C° 0 mm 7 m/S 747 mmHg 28%
    13:00 +34°C° 0 mm 7 m/S 747 mmHg 27%
    14:00 +35°C° 0 mm 7 m/S 746 mmHg 27%
    15:00 +35°C° 0 mm 7 m/S 746 mmHg 27%
    16:00 +33°C° 0 mm 7 m/S 745 mmHg 33%
    17:00 +31°C° 0 mm 8 m/S 745 mmHg 40%
    18:00 +28°C° 0 mm 8 m/S 745 mmHg 47%
    19:00 +27°C° 1 mm 7 m/S 745 mmHg 53%
    20:00 +24°C° 1 mm 6 m/S 745 mmHg 59%
    21:00 +23°C° 1 mm 5 m/S 746 mmHg 65%
    22:00 +22°C° 1,6 mm 5 m/S 746 mmHg 68%
    23:00 +22°C° 1,6 mm 4 m/S 746 mmHg 71%

    Morgen, 25 April, Mittwoch

    Zeit Temperatur Niederschläge Wind Luftdruck Luftfeuchtigkeit
    00:00 +21°C° 1,6 mm 4 m/S 746 mmHg 74%
    01:00 +21°C° 1 mm 4 m/S 745 mmHg 72%
    02:00 +21°C° 1 mm 5 m/S 745 mmHg 70%
    03:00 +21°C° 1 mm 5 m/S 745 mmHg 68%
    04:00 +21°C° 0,9 mm 5 m/S 745 mmHg 70%
    05:00 +20°C° 0,9 mm 5 m/S 745 mmHg 72%
    06:00 +20°C° 0,9 mm 5 m/S 745 mmHg 74%
    07:00 +22°C° 0,4 mm 5 m/S 746 mmHg 67%
    08:00 +25°C° 0,4 mm 5 m/S 746 mmHg 60%
    09:00 +27°C° 0,4 mm 5 m/S 746 mmHg 54%
    10:00 +26°C° 0,4 mm 5 m/S 746 mmHg 58%
    11:00 +26°C° 0,4 mm 5 m/S 746 mmHg 62%
    12:00 +25°C° 0,4 mm 4 m/S 746 mmHg 66%
    13:00 +25°C° 0,8 mm 4 m/S 746 mmHg 66%
    14:00 +25°C° 0,8 mm 4 m/S 746 mmHg 67%
    15:00 +25°C° 0,8 mm 3 m/S 745 mmHg 67%
    16:00 +24°C° 3,1 mm 3 m/S 746 mmHg 74%
    17:00 +21°C° 3,1 mm 3 m/S 746 mmHg 81%
    18:00 +20°C° 3,1 mm 2 m/S 746 mmHg 89%
    19:00 +20°C° 2,1 mm 3 m/S 747 mmHg 89%
    20:00 +19°C° 2,1 mm 3 m/S 747 mmHg 89%
    21:00 +19°C° 2,1 mm 4 m/S 747 mmHg 89%
    22:00 +19°C° 0,6 mm 3 m/S 747 mmHg 89%
    23:00 +19°C° 0,6 mm 2 m/S 746 mmHg 89%

    übermorgen, 26 April, Donnerstag

    Zeit Temperatur Niederschläge Wind Luftdruck Luftfeuchtigkeit
    00:00 +18°C° 0,6 mm 2 m/S 746 mmHg 89%
    01:00 +18°C° 0,4 mm 2 m/S 746 mmHg 91%
    02:00 +18°C° 0,4 mm 3 m/S 745 mmHg 94%
    03:00 +17°C° 0,4 mm 3 m/S 745 mmHg 96%
    04:00 +17°C° 0,3 mm 3 m/S 745 mmHg 96%
    05:00 +18°C° 0,3 mm 4 m/S 745 mmHg 95%
    06:00 +18°C° 0,3 mm 4 m/S 745 mmHg 95%
    07:00 +18°C° 0,1 mm 4 m/S 745 mmHg 93%
    08:00 +18°C° 0,1 mm 4 m/S 745 mmHg 92%
    09:00 +19°C° 0,1 mm 5 m/S 745 mmHg 90%
    10:00 +19°C° 0,1 mm 5 m/S 745 mmHg 88%
    11:00 +19°C° 0,1 mm 5 m/S 745 mmHg 87%
    12:00 +19°C° 0,1 mm 5 m/S 745 mmHg 85%
    13:00 +19°C° 0,1 mm 5 m/S 745 mmHg 87%
    14:00 +17°C° 0,1 mm 5 m/S 744 mmHg 89%
    15:00 +17°C° 0,1 mm 5 m/S 744 mmHg 91%
    16:00 +17°C° 0,2 mm 5 m/S 745 mmHg 92%
    17:00 +17°C° 0,2 mm 5 m/S 745 mmHg 93%
    18:00 +16°C° 0,2 mm 5 m/S 745 mmHg 94%
    19:00 +16°C° 0,1 mm 5 m/S 746 mmHg 95%
    20:00 +17°C° 0,1 mm 4 m/S 746 mmHg 95%
    21:00 +17°C° 0,1 mm 4 m/S 747 mmHg 95%
    22:00 +17°C° 0,1 mm 4 m/S 746 mmHg 95%
    23:00 +15°C° 0,1 mm 4 m/S 746 mmHg 95%

    27 April, Freitag

    Zeit Temperatur Niederschläge Wind Luftdruck Luftfeuchtigkeit
    00:00 +15°C° 0,1 mm 4 m/S 746 mmHg 95%
    01:00 +15°C° 0,1 mm 4 m/S 746 mmHg 95%
    02:00 +15°C° 0,1 mm 4 m/S 746 mmHg 95%
    03:00 +15°C° 0,1 mm 4 m/S 746 mmHg 95%
    04:00 +15°C° 0,1 mm 4 m/S 746 mmHg 95%
    05:00 +15°C° 0,1 mm 4 m/S 746 mmHg 94%
    06:00 +15°C° 0,1 mm 4 m/S 746 mmHg 94%
    07:00 +17°C° 0 mm 4 m/S 746 mmHg 90%
    08:00 +17°C° 0 mm 4 m/S 747 mmHg 87%
    09:00 +18°C° 0 mm 4 m/S 747 mmHg 83%
    10:00 +18°C° 0 mm 4 m/S 747 mmHg 80%
    11:00 +19°C° 0 mm 4 m/S 747 mmHg 77%
    12:00 +20°C° 0 mm 4 m/S 747 mmHg 73%
    13:00 +20°C° 0 mm 4 m/S 747 mmHg 73%
    14:00 +20°C° 0 mm 4 m/S 746 mmHg 72%
    15:00 +20°C° 0 mm 4 m/S 746 mmHg 71%
    16:00 +19°C° 0 mm 3 m/S 746 mmHg 74%
    17:00 +18°C° 0 mm 3 m/S 747 mmHg 77%
    18:00 +18°C° 0 mm 2 m/S 747 mmHg 80%
    19:00 +17°C° 0 mm 2 m/S 747 mmHg 83%
    20:00 +16°C° 0 mm 2 m/S 748 mmHg 86%
    21:00 +15°C° 0 mm 1 m/S 748 mmHg 90%
    22:00 +15°C° 0 mm 1 m/S 748 mmHg 89%
    23:00 +15°C° 0 mm 2 m/S 748 mmHg 89%

    28 April, Samstag

    Zeit Temperatur Niederschläge Wind Luftdruck Luftfeuchtigkeit
    00:00 +14°C° 0 mm 2 m/S 747 mmHg 88%
    01:00 +14°C° 0 mm 2 m/S 747 mmHg 86%
    02:00 +14°C° 0 mm 2 m/S 747 mmHg 84%
    03:00 +14°C° 0 mm 1 m/S 747 mmHg 81%
    04:00 +15°C° 0 mm 2 m/S 747 mmHg 79%
    05:00 +15°C° 0 mm 2 m/S 747 mmHg 76%
    06:00 +16°C° 0 mm 2 m/S 747 mmHg 73%
    07:00 +19°C° 0 mm 1 m/S 747 mmHg 64%
    08:00 +21°C° 0 mm 1 m/S 747 mmHg 55%
    09:00 +23°C° 0 mm 1 m/S 748 mmHg 46%
    10:00 +24°C° 0 mm 1 m/S 747 mmHg 43%
    11:00 +25°C° 0 mm 1 m/S 747 mmHg 40%
    12:00 +27°C° 0 mm 2 m/S 747 mmHg 36%
    13:00 +27°C° 0 mm 2 m/S 747 mmHg 38%
    14:00 +27°C° 0 mm 2 m/S 746 mmHg 39%
    15:00 +27°C° 0 mm 3 m/S 746 mmHg 41%
    16:00 +26°C° 0 mm 3 m/S 746 mmHg 47%
    17:00 +24°C° 0 mm 3 m/S 746 mmHg 54%
    18:00 +22°C° 0 mm 3 m/S 746 mmHg 61%
    19:00 +21°C° 0 mm 3 m/S 746 mmHg 63%
    20:00 +20°C° 0 mm 2 m/S 746 mmHg 65%
    21:00 +19°C° 0 mm 2 m/S 747 mmHg 67%
    22:00 +19°C° 0 mm 2 m/S 746 mmHg 65%
    23:00 +19°C° 0 mm 2 m/S 746 mmHg 64%

    29 April, Sonntag

    Zeit Temperatur Niederschläge Wind Luftdruck Luftfeuchtigkeit
    00:00 +19°C° 0 mm 2 m/S 746 mmHg 63%
    01:00 +19°C° 0 mm 2 m/S 746 mmHg 62%
    02:00 +19°C° 0 mm 2 m/S 746 mmHg 61%
    03:00 +19°C° 0 mm 3 m/S 746 mmHg 61%
    04:00 +19°C° 0,3 mm 3 m/S 746 mmHg 65%
    05:00 +19°C° 0,3 mm 3 m/S 746 mmHg 70%
    06:00 +18°C° 0,3 mm 4 m/S 747 mmHg 75%
    07:00 +20°C° 0,1 mm 4 m/S 747 mmHg 71%
    08:00 +21°C° 0,1 mm 4 m/S 747 mmHg 67%
    09:00 +22°C° 0,1 mm 5 m/S 748 mmHg 63%
    10:00 +22°C° 0 mm 6 m/S 748 mmHg 64%
    11:00 +22°C° 0 mm 7 m/S 748 mmHg 64%
    12:00 +22°C° 0 mm 9 m/S 748 mmHg 65%
    13:00 +21°C° 0,1 mm 9 m/S 748 mmHg 67%
    14:00 +20°C° 0,1 mm 8 m/S 748 mmHg 70%
    15:00 +18°C° 0,1 mm 8 m/S 749 mmHg 72%
    16:00 +18°C° 0,1 mm 8 m/S 749 mmHg 72%
    17:00 +17°C° 0,1 mm 7 m/S 749 mmHg 72%
    18:00 +16°C° 0,1 mm 7 m/S 750 mmHg 72%
    19:00 +16°C° 0 mm 6 m/S 750 mmHg 71%
    20:00 +15°C° 0 mm 6 m/S 751 mmHg 70%
    21:00 +14°C° 0 mm 5 m/S 752 mmHg 69%
    22:00 +14°C° 0 mm 5 m/S 752 mmHg 69%
    23:00 +13°C° 0 mm 4 m/S 751 mmHg 69%
    Mehr zeigen